Volver al catálogo

STARLINK-33981

ActivoComunicacionesVLEO
NORAD 63888·PAYLOAD·🇺🇸 United States

Lanzado May 10, 2025 desde Vandenberg Space Force Base

Loading…

Próximos Pases (próximas 24 horas)

TLE

ActualizadoSource: CelesTrak SupGP

Época: Sep 14, 2026, 22:43 UTC

1 63888C 25094AA  26257.94701389  .00005251  00000+0  18268-3 0  2573
2 63888  69.9990 115.5899 0003471 271.3773 112.0474 15.29573715    15

Sigue STARLINK-33981 en tiempo real con AllMySat

Download on the App Store